Location: Ottawa
(45.4167°N, 75.7000°W)
Time: 03:23:36
(UTC-04:00)

Vanguard 1 Rocket - All Passes

Search period start: 19 October 2017 00:00
Search period end: 29 October 2017 00:00
Orbit: 655 x 4222 km, 34.3° (Epoch: 18 October)

Date Brightness Start Highest point End Pass type
(mag) Time Alt. Az. Time Alt. Az. Time Alt. Az.
19 Oct - 08:09:21 10° SSW 08:13:52 18° S 08:17:22 10° SE daylight
19 Oct - 10:34:20 10° SW 10:38:07 22° S 10:41:34 10° SE daylight
19 Oct - 13:00:10 10° SW 13:02:10 13° SSW 13:04:21 10° S daylight
20 Oct - 06:58:22 10° SSW 07:03:01 16° SSE 07:06:36 10° SE visible
20 Oct - 09:23:04 10° SW 09:27:40 23° S 09:31:19 10° SE daylight
20 Oct - 11:48:46 10° SW 11:51:40 17° SSW 11:54:38 10° SSE daylight
21 Oct - 05:48:02 10° S 05:51:53 13° SSE 05:55:02 10° SE visible
21 Oct - 08:11:30 10° SW 08:17:04 23° S 08:21:05 10° ESE daylight
21 Oct - 10:37:27 10° WSW 10:41:16 21° S 10:44:40 10° SE daylight
22 Oct - 06:59:46 10° SSW 07:06:14 21° SSE 07:10:43 10° ESE visible
22 Oct - 09:25:52 10° WSW 09:30:51 25° S 09:34:39 10° SE daylight
22 Oct - 11:52:30 10° SW 11:54:45 14° SSW 11:57:01 10° SSE daylight
23 Oct - 05:48:12 10° SSW 05:55:05 18° SSE 05:59:57 10° ESE visible
23 Oct - 08:13:55 10° SW 08:20:15 27° S 08:24:36 10° ESE daylight
23 Oct - 10:40:40 10° WSW 10:44:22 20° SSW 10:47:37 10° SSE daylight
24 Oct - 04:37:24 10° S 04:43:36 15° SSE 04:48:20 10° SE visible
24 Oct - 07:01:39 10° SW 07:09:26 27° S 07:14:27 10° ESE visible
24 Oct - 09:28:46 10° WSW 09:33:58 26° S 09:37:53 10° SE daylight
24 Oct - 11:57:29 10° SSW 11:57:47 10° SSW 11:58:04 10° SSW daylight
25 Oct - 03:29:51 10° SSE 03:31:46 10° SSE 03:33:32 10° SE visible
25 Oct - 05:49:19 10° SSW 05:58:17 24° SSE 06:04:02 10° ESE visible
25 Oct - 08:16:29 10° WSW 08:23:26 30° S 08:28:01 10° ESE daylight
25 Oct - 10:44:02 10° WSW 10:47:25 17° SSW 10:50:23 10° SSE daylight
26 Oct - 04:37:19 10° SSW 04:46:45 21° SSE 04:53:07 10° ESE visible
26 Oct - 07:03:48 10° SW 07:12:36 31° S 07:18:00 10° ESE visible
26 Oct - 09:31:45 10° WSW 09:37:05 25° SSW 09:41:01 10° SE daylight
27 Oct - 03:26:23 10° S 03:34:51 16° SSE 03:41:09 10° ESE visible
27 Oct - 05:50:53 10° SW 06:01:27 30° S 06:07:47 10° ESE visible
27 Oct - 08:19:10 10° WSW 08:26:34 32° S 08:31:19 10° SE daylight
27 Oct - 10:47:38 10° WSW 10:50:25 14° SSW 10:52:52 10° S daylight
28 Oct - 02:18:49 10° SSE 02:22:38 11° SSE 02:26:02 10° SE visible
28 Oct - 04:38:05 10° SSW 04:49:53 27° SSE 04:57:11 10° ESE visible
28 Oct - 07:06:07 10° WSW 07:15:45 36° S 07:21:26 10° ESE visible
28 Oct - 09:34:49 10° WSW 09:40:07 23° SSW 09:44:01 10° SSE daylight
